Powrót do katalogu

FENGYUN 1C DEB

AktywnyPO
NORAD 38824·DEBRIS·🇨🇳 China

Wystrzelony May 10, 1999 z Taiyuan Satellite Launch Center

Loading…

Następne Przeloty (najbliższe 24 godziny)

TLE

ŚwieżeSource: Space-Track

Epoka: Sep 14, 2026, 09:16 UTC

1 38824U 99025EVQ 26257.38642094  .00003339  00000-0  16190-2 0  9995
2 38824  99.2983  47.7488 0095265 149.1115 211.5710 14.16749298730372

Śledź FENGYUN 1C DEB w czasie rzeczywistym z AllMySat

Download on the App Store